[[{"header":{"parameterUnit":"m.s-1","parameterCategory":1,"la1":30.2991,"la2":30.254,"lo1":-89.0895,"lo2":-89.0444,"dy":0.0017,"dx":0.0017,"nx":28,"ny":28,"refTime":"2024-08-28T09:00:00:Z","depth":0,"parameterNumber":2,"parameterNumberName":"U-component_of_WINDS"},"data":[0,0,0,0,0,0,0,0,0,0,0,0,0,0,0,0,0,0,0,0,0,0,0,0,0,0,0,0,0,0,0,0,0,0,0,0,0,0,0,0,0,0,0,0,0,0,0,0,0,0,0,0,0,0,0,0,0,0,-2.7011,-2.7012,0,-2.7064,-2.7064,-2.7065,-2.7017,-2.7015,-2.7013,-2.7011,-2.7063,-2.7066,-2.7069,0,0,0,0,0,0,0,0,0,0,0,0,0,-2.687,-2.6873,-2.7011,-2.7012,-2.7013,-2.7063,-2.7064,-2.7065,-2.7017,-2.7015,-2.7013,-2.7011,-2.7062,-2.7066,-2.707,0,0,0,0,0,0,0,0,0,0,0,0,0,-2.6928,-2.6874,-2.7011,-2.6995,-2.6994,-2.7063,-2.7064,-2.7065,-2.7018,-2.7015,-2.7012,-2.701,-2.7061,-2.7066,-2.707,-2.7157,0,0,-2.7085,-2.7087,0,0,0,0,0,0,0,0,-2.6925,-2.6933,-2.6997,-2.6996,-2.6996,-2.7031,-2.7033,-2.7096,-2.7019,-2.7009,-2.7011,-2.7008,-2.7055,-2.706,-2.7076,-2.716,-2.7162,-2.7085,-2.7088,-2.709,-2.7091,0,0,0,0,0,0,0,-2.6921,-2.6931,-2.7032,-2.6998,-2.6997,-2.6985,-2.699,-2.7045,-2.7047,-2.701,-2.7006,-2.7013,-2.7054,-2.7071,-2.7077,-2.7163,-2.7085,-2.7089,-2.7092,-2.7094,-2.7321,-2.7324,0,0,0,0,0,0,-2.6919,-2.6928,-2.703,-2.7033,-2.6952,-2.699,-2.6996,-2.7022,-2.7047,-2.7048,-2.7016,-2.7011,-2.7065,-2.7071,-2.7078,-2.7182,-2.709,-2.7095,-2.7097,-2.7318,-2.7322,-2.7325,0,0,0,0,0,0,-2.6916,-2.6928,-2.7028,-2.698,-2.6992,-2.6996,-2.7026,-2.7025,-2.7042,-2.7051,-2.7051,-2.7033,-2.7063,-2.7072,-2.7138,-2.7183,-2.7097,-2.7101,-2.7314,-2.7319,-2.7323,-2.7389,0,0,0,0,0,0,-2.6912,-2.6927,-2.696,-2.6981,-2.6994,-2.7087,-2.7029,-2.7028,-2.7051,-2.7045,-2.7068,-2.7069,-2.7061,-2.7131,-2.7143,-2.7188,-2.7105,-2.731,-2.7316,-2.7322,-2.7383,-2.7395,-2.7406,0,0,0,0,0,-2.6907,-2.6976,-2.6962,-2.6975,-2.7036,-2.709,-2.7098,-2.7088,-2.7055,-2.7088,-2.7094,-2.7068,-2.7177,-2.7139,-2.7151,-2.7198,-2.7307,-2.7315,-2.7321,-2.7377,-2.7393,-2.7406,0,0,0,0,0,0,-2.696,-2.6979,-2.6963,-2.7041,-2.7065,-2.7082,-2.7123,-2.7105,-2.7137,-2.713,-2.7117,-2.7122,-2.7193,-2.7202,-2.716,-2.7284,-2.7236,-2.7246,-2.7275,-2.7289,-2.7301,-2.7296,-2.7109,0,0,0,0,0,-2.6981,-2.7024,-2.7038,-2.7105,-2.7118,-2.7119,-2.7142,-2.7133,-2.7156,-2.7166,-2.7176,-2.7199,-2.7239,-2.7265,-2.7301,-2.7385,-2.7389,-2.7423,-2.7435,-2.7444,-2.7453,-2.7498,-2.7513,-2.7349,-2.7349,-2.7348,0,0,-2.7024,-2.704,-2.7068,-2.7117,-2.7133,-2.7178,-2.7127,-2.7176,-2.7209,-2.7173,-2.7236,-2.7245,-2.727,-2.7346,-2.7379,-2.7356,-2.7499,-2.7454,-2.7461,-2.7464,-2.7507,-2.7522,-2.7536,-2.7354,-2.7353,-2.7352,0,0,-2.7126,-2.7142,-2.72,-2.7219,-2.7245,-2.7246,-2.726,-2.7281,-2.7286,-2.7349,-2.7323,-2.7362,-2.743,-2.7449,-2.7468,-2.7579,-2.7556,-2.7592,-2.7652,-2.7696,-2.7709,-2.772,-2.7759,-2.7773,-2.76,-2.7601,-2.7601,0,-2.7176,-2.7242,-2.7232,-2.7284,-2.7306,-2.7277,-2.7335,-2.7354,-2.7391,-2.7407,-2.738,-2.7466,-2.7481,-2.756,-2.7588,-2.7604,-2.7619,-2.7588,-2.7708,-2.7719,-2.773,-2.7767,-2.7781,-2.7605,-2.7604,-2.7604,-2.7603,0,-2.7302,-2.7349,-2.7393,-2.743,-2.7458,-2.7512,-2.7511,-2.754,-2.7529,-2.7533,-2.7598,-2.7616,-2.7655,-2.7674,-2.7664,-2.7753,-2.7737,-2.771,-2.7661,-2.7749,-2.7784,-2.7798,-2.761,-2.7609,-2.7608,-2.7607,0,0,-2.7436,-2.7469,-2.7485,-2.7502,-2.753,-2.7566,-2.762,-2.766,-2.7685,-2.7712,-2.7757,-2.7816,-2.7791,-2.7813,-2.7804,-2.7843,-2.793,-2.7811,-2.7811,-2.7832,-2.8029,-2.8048,-2.8064,-2.7916,-2.7919,-2.7921,-2.8026,0,-2.7538,-2.7631,-2.7625,-2.7713,-2.7756,-2.773,-2.7777,-2.78,-2.7805,-2.7842,-2.7848,-2.789,-2.7854,-2.7867,-2.7904,-2.7911,-2.7969,-2.7904,-2.7956,-2.7958,-2.7949,-2.8083,-2.8103,-2.8201,-2.804,-2.8042,-2.8044,0,-2.7668,-2.7701,-2.7794,-2.7816,-2.7834,-2.7876,-2.7913,-2.7949,-2.7974,-2.7975,-2.8,-2.7986,-2.8041,-2.7993,-2.8068,-2.8024,-2.8045,-2.8052,-2.8056,-2.8059,-2.8005,-2.8088,-2.8233,-2.8247,-2.8065,-2.8063,-2.8062,0,-2.7756,-2.7823,-2.7887,-2.7903,-2.7931,-2.7961,-2.7974,-2.7997,-2.8022,-2.8054,-2.807,-2.8108,-2.8128,-2.8158,-2.8155,-2.8121,-2.8231,-2.8183,-2.8233,-2.8233,-2.8256,-2.8254,-2.8404,-2.8273,-2.8272,-2.8272,-2.8272,0,-2.7869,-2.7926,-2.7927,-2.7966,-2.803,-2.8023,-2.8086,-2.8096,-2.8117,-2.8157,-2.8138,-2.8176,-2.817,-2.8209,-2.8207,-2.827,-2.8279,-2.8281,-2.828,-2.8282,-2.8282,-2.8295,-2.8287,-2.8276,-2.8275,-2.8274,-2.8274,0,-2.7976,-2.7979,-2.8047,-2.8069,-2.8076,-2.8122,-2.814,-2.8178,-2.8182,-2.8234,-2.8246,-2.8253,-2.8298,-2.8298,-2.835,-2.8348,-2.8424,-2.8416,-2.8416,-2.8413,-2.8463,-2.8458,-2.8625,-2.8647,-2.8503,-2.8504,-2.8505,0,-2.8047,-2.8091,-2.8118,-2.8144,-2.8159,-2.8202,-2.8227,-2.8223,-2.825,-2.8283,-2.8317,-2.836,-2.8394,-2.8467,-2.8477,-2.8516,-2.8508,-2.8564,-2.8513,-2.8514,-2.8507,-2.8504,-2.8508,-2.8573,-2.8575,-2.8576,-2.8577,0,-2.8173,-2.8172,-2.821,-2.8249,-2.828,-2.831,-2.8338,-2.836,-2.8359,-2.8391,-2.8437,-2.8464,-2.8517,-2.856,-2.8599,-2.8612,-2.8594,-2.8593,-2.8607,-2.8609,-2.8606,-2.8607,-2.8441,-2.8589,-2.8588,-2.8587,-2.8586,-2.8586,-2.8263,-2.8301,-2.8326,-2.8369,-2.839,-2.8417,-2.8453,-2.8463,-2.8501,-2.8544,-2.854,-2.8591,-2.8616,-2.8666,-2.8684,-2.8724,-2.8704,-2.8724,-2.8728,-2.8733,-2.8738,-2.8602,-2.8731,-2.873,-2.873,-2.873,-2.873,0,-2.8387,-2.8403,-2.8442,-2.8482,-2.8516,-2.8498,-2.8528,-2.8558,-2.8603,-2.8629,-2.8663,-2.8717,-2.8759,-2.8773,-2.8814,-2.8844,-2.8837,-2.8855,-2.8851,-2.8855,-2.8754,-2.8737,-2.886,-2.886,-2.886,-2.886,-2.8859,-2.8859,-2.8455,-2.8518,-2.8521,-2.8594,-2.8609,-2.866,-2.8679,-2.8704,-2.8724,-2.8785,-2.882,-2.8829,-2.885,-2.8893,-2.8931,-2.8934,-2.895,-2.8971,-2.8971,-2.8875,-2.8862,-2.8849,-2.8834,-2.8975,-2.8975,-2.9068,-2.9069,-2.907]},{"header":{"parameterUnit":"m.s-1","parameterCategory":1,"la1":30.2991,"la2":30.254,"lo1":-89.0895,"lo2":-89.0444,"dy":0.0017,"dx":0.0017,"nx":28,"ny":28,"refTime":"2024-08-28T09:00:00:Z","depth":0,"parameterNumber":3,"parameterNumberName":"V-component_of_WINDS"},"data":[0,0,0,0,0,0,0,0,0,0,0,0,0,0,0,0,0,0,0,0,0,0,0,0,0,0,0,0,0,0,0,0,0,0,0,0,0,0,0,0,0,0,0,0,0,0,0,0,0,0,0,0,0,0,0,0,0,0,-0.7636,-0.7637,0,-0.7676,-0.7676,-0.7676,-0.7664,-0.7663,-0.7662,-0.7661,-0.7703,-0.7705,-0.7707,0,0,0,0,0,0,0,0,0,0,0,0,0,-0.7551,-0.7553,-0.7636,-0.7637,-0.7637,-0.7675,-0.7676,-0.7677,-0.7664,-0.7663,-0.7662,-0.7661,-0.7702,-0.7705,-0.7707,0,0,0,0,0,0,0,0,0,0,0,0,0,-0.7589,-0.7553,-0.7636,-0.7636,-0.7636,-0.7675,-0.7676,-0.7677,-0.7664,-0.7663,-0.7662,-0.766,-0.7702,-0.7704,-0.7707,-0.775,0,0,-0.7716,-0.7717,0,0,0,0,0,0,0,0,-0.7587,-0.7592,-0.7635,-0.7636,-0.7636,-0.7663,-0.7661,-0.7701,-0.7664,-0.7653,-0.7661,-0.766,-0.7691,-0.7695,-0.7705,-0.7752,-0.7754,-0.7716,-0.7718,-0.7719,-0.772,0,0,0,0,0,0,0,-0.7584,-0.759,-0.7652,-0.7636,-0.7636,-0.7633,-0.7637,-0.7669,-0.7679,-0.7654,-0.7653,-0.7658,-0.7691,-0.7702,-0.7706,-0.7755,-0.7716,-0.7719,-0.772,-0.7721,-0.7838,-0.784,0,0,0,0,0,0,-0.7581,-0.7588,-0.7651,-0.7653,-0.7608,-0.7636,-0.764,-0.7656,-0.7678,-0.7681,-0.7659,-0.7657,-0.7698,-0.7702,-0.7707,-0.7759,-0.7719,-0.7722,-0.7723,-0.7837,-0.7839,-0.784,0,0,0,0,0,0,-0.7579,-0.7587,-0.7649,-0.762,-0.7628,-0.7639,-0.7656,-0.7657,-0.7669,-0.7682,-0.7684,-0.7669,-0.7697,-0.7703,-0.7739,-0.776,-0.7723,-0.7726,-0.7835,-0.7837,-0.7839,-0.7863,0,0,0,0,0,0,-0.7577,-0.7586,-0.7603,-0.7621,-0.763,-0.7681,-0.7658,-0.7659,-0.7673,-0.7671,-0.7692,-0.7694,-0.7696,-0.7735,-0.7742,-0.7764,-0.7728,-0.7833,-0.7836,-0.7839,-0.7861,-0.7866,-0.787,0,0,0,0,0,-0.7574,-0.7609,-0.7604,-0.7611,-0.7651,-0.7682,-0.7687,-0.7689,-0.7675,-0.7692,-0.77,-0.7693,-0.7756,-0.7739,-0.7747,-0.7769,-0.7832,-0.7835,-0.7838,-0.7859,-0.7865,-0.787,0,0,0,0,0,0,-0.7594,-0.7611,-0.7606,-0.7647,-0.7663,-0.768,-0.7701,-0.7696,-0.7717,-0.7714,-0.7716,-0.772,-0.7758,-0.7767,-0.7747,-0.7812,-0.7792,-0.7797,-0.7805,-0.7811,-0.7816,-0.7814,-0.773,0,0,0,0,0,-0.7603,-0.7627,-0.764,-0.7676,-0.7684,-0.7691,-0.7705,-0.7705,-0.7721,-0.7728,-0.7739,-0.7756,-0.778,-0.7796,-0.7818,-0.7861,-0.7865,-0.788,-0.7885,-0.7889,-0.7894,-0.7917,-0.7924,-0.785,-0.785,-0.785,0,0,-0.7623,-0.7635,-0.765,-0.768,-0.7692,-0.7717,-0.7697,-0.7724,-0.7743,-0.7733,-0.7768,-0.7776,-0.7795,-0.7835,-0.7853,-0.7843,-0.7915,-0.7893,-0.7896,-0.7899,-0.7921,-0.7928,-0.7934,-0.7852,-0.7852,-0.7852,0,0,-0.7671,-0.7682,-0.7713,-0.7725,-0.7743,-0.7748,-0.7755,-0.7772,-0.7777,-0.7811,-0.7804,-0.7826,-0.7866,-0.788,-0.7892,-0.7943,-0.7937,-0.795,-0.7976,-0.7999,-0.8005,-0.801,-0.8029,-0.8036,-0.7954,-0.7954,-0.7954,0,-0.7694,-0.773,-0.7729,-0.7757,-0.7771,-0.7761,-0.7792,-0.7804,-0.7829,-0.7838,-0.7827,-0.7877,-0.7889,-0.7931,-0.7944,-0.7953,-0.7962,-0.7949,-0.8004,-0.8009,-0.8014,-0.8032,-0.8039,-0.7956,-0.7956,-0.7956,-0.7955,0,-0.7757,-0.7783,-0.7805,-0.7828,-0.7844,-0.7873,-0.7877,-0.7893,-0.789,-0.7895,-0.793,-0.7944,-0.7969,-0.7978,-0.7977,-0.802,-0.8014,-0.8003,-0.7984,-0.8023,-0.804,-0.8047,-0.7958,-0.7958,-0.7957,-0.7957,0,0,-0.7823,-0.7843,-0.7852,-0.7862,-0.788,-0.79,-0.7928,-0.7951,-0.7965,-0.7981,-0.8006,-0.8039,-0.8028,-0.8042,-0.8042,-0.8061,-0.8101,-0.8048,-0.8048,-0.8058,-0.8151,-0.816,-0.8168,-0.8096,-0.8097,-0.8098,-0.8149,0,-0.7873,-0.7923,-0.7922,-0.7968,-0.7992,-0.7981,-0.8005,-0.8019,-0.8024,-0.8045,-0.805,-0.8074,-0.8058,-0.8066,-0.8085,-0.8092,-0.812,-0.8088,-0.812,-0.8121,-0.8117,-0.8177,-0.8187,-0.8235,-0.8156,-0.8157,-0.8158,0,-0.7941,-0.7958,-0.8007,-0.802,-0.803,-0.8052,-0.8073,-0.8092,-0.8107,-0.8109,-0.8124,-0.8119,-0.8148,-0.8126,-0.8165,-0.8143,-0.8155,-0.8161,-0.8162,-0.8167,-0.8143,-0.8185,-0.825,-0.8258,-0.8168,-0.8167,-0.8167,0,-0.7985,-0.8021,-0.8054,-0.8063,-0.808,-0.8095,-0.8103,-0.8116,-0.813,-0.8148,-0.8157,-0.8177,-0.8189,-0.8206,-0.8207,-0.8191,-0.8247,-0.8225,-0.825,-0.825,-0.8265,-0.8264,-0.8335,-0.8269,-0.8269,-0.8269,-0.8269,0,-0.8043,-0.8074,-0.8074,-0.8095,-0.8128,-0.8126,-0.8159,-0.8165,-0.8177,-0.8198,-0.819,-0.821,-0.821,-0.8231,-0.8232,-0.8264,-0.8269,-0.8272,-0.8273,-0.8274,-0.8274,-0.8284,-0.8282,-0.8271,-0.827,-0.827,-0.8269,0,-0.81,-0.8101,-0.8137,-0.8149,-0.8152,-0.8177,-0.8187,-0.8206,-0.8209,-0.8237,-0.8243,-0.8248,-0.8272,-0.8274,-0.8302,-0.8302,-0.8342,-0.8338,-0.8337,-0.8337,-0.8363,-0.8361,-0.8444,-0.8455,-0.8381,-0.8381,-0.8382,0,-0.8138,-0.8161,-0.8175,-0.8188,-0.8196,-0.8219,-0.8232,-0.823,-0.8244,-0.8261,-0.8279,-0.8302,-0.832,-0.8359,-0.8365,-0.8386,-0.8383,-0.8411,-0.8387,-0.8387,-0.8386,-0.8385,-0.8388,-0.8416,-0.8417,-0.8418,-0.8418,0,-0.8206,-0.8205,-0.8225,-0.8244,-0.826,-0.8276,-0.829,-0.8302,-0.8301,-0.8317,-0.8341,-0.8355,-0.8383,-0.8406,-0.8426,-0.8434,-0.8427,-0.8425,-0.8433,-0.8436,-0.8435,-0.8437,-0.8352,-0.8424,-0.8424,-0.8423,-0.8423,-0.8423,-0.8256,-0.8276,-0.8288,-0.831,-0.832,-0.8333,-0.8352,-0.8356,-0.8376,-0.8398,-0.8395,-0.8422,-0.8434,-0.846,-0.8469,-0.849,-0.8481,-0.8491,-0.8494,-0.8497,-0.8501,-0.843,-0.8494,-0.8493,-0.8493,-0.8493,-0.8493,0,-0.8325,-0.8332,-0.8352,-0.8372,-0.8388,-0.8378,-0.8392,-0.8408,-0.8431,-0.8443,-0.8461,-0.8488,-0.8509,-0.8516,-0.8537,-0.8552,-0.8549,-0.8558,-0.8558,-0.856,-0.8507,-0.8499,-0.856,-0.856,-0.856,-0.856,-0.856,-0.856,-0.8364,-0.8396,-0.8396,-0.8434,-0.844,-0.8466,-0.8475,-0.8487,-0.8497,-0.8527,-0.8545,-0.8548,-0.8558,-0.8579,-0.8598,-0.86,-0.8609,-0.8619,-0.8619,-0.857,-0.8564,-0.8557,-0.855,-0.8621,-0.8621,-0.8671,-0.8671,-0.8672]}]]